Home > Weather > Cambridge > Past weeks

Flag for Canada Weather for the Past 2 Weeks in Cambridge, Ontario, Canada

Now
41 °F

Overcast.


Feels Like: 35 °F
Forecast: N/A
Wind: 10 mph from South

Location: Waterloo Well

Current Time: Feb 7, 2016 at 6:04:47 PM

Latest Report: Feb 7, 2016 at 5:00 PM


Visibility: 9 mi

Pressure: 29.87 "Hg

Humidity: 57%

Dew point: 27 °F

Location of CambridgeLocation

Historic Weather in Cambridge — Graph

°F

Cambridge Temperature Yesterday

Maximum temperature yesterday: 34 °F (at 12:00 PM)
Minimum temperature yesterday: 28 °F (at 12:00 AM)
Average temperature yesterday: 30 °F

High & Low Weather Summary for the Past Weeks

 TemperatureHumidityPressure
High57 °F (Feb 3, 1:52 PM)100% (Jan 24, 1:00 AM)30.34 "Hg (Jan 24, 1:00 AM)
Low9 °F (Jan 23, 9:00 PM)44% (Feb 3, 3:00 PM)29.46 "Hg (Jan 31, 11:00 PM)
Average31 °F83%29.92 "Hg
* Reported Jan 23 5:00 PM — Feb 7 5:00 PM, Cambridge, Weather by CustomWeather, © 2016

Note: Actual official high and low records may vary slightly from our data, if they occured in-between our weather recording intervals... More about our weather records

Advertising

Cambridge Weather History for the Previous 24 Hours

 ConditionsComfort  
Time TempWeatherWind HumidityBarometerVisibility
5:00 PM
Sun, Feb 7
41 °FOvercast.10 mph57%29.87 "Hg9 mi
4:00 PM41 °FMostly cloudy.15 mph57%29.89 "Hg9 mi
3:00 PM41 °FOvercast.13 mph61%29.89 "Hg9 mi
2:00 PM43 °FMore clouds than sun.15 mph57%29.91 "Hg9 mi
1:00 PM43 °FPartly sunny.15 mph57%29.94 "Hg9 mi
12:00 PM41 °FPassing clouds.15 mph61%29.97 "Hg9 mi
11:00 AM37 °FScattered clouds.12 mph70%30.00 "Hg9 mi
10:00 AM36 °FPassing clouds.10 mph81%30.01 "Hg9 mi
9:00 AM30 °FIce fog.10 mph93%30.02 "Hg5 mi
8:00 AM28 °FIce fog.7 mph93%30.04 "Hg4 mi
7:00 AM27 °FIce fog.6 mph93%30.07 "Hg4 mi
6:00 AM25 °FIce fog.7 mph93%30.08 "Hg4 mi
5:00 AM27 °FIce fog.5 mph93%30.09 "Hg4 mi
4:00 AM27 °FIce fog.No wind93%30.11 "Hg4 mi
3:00 AM27 °FIce fog.2 mph93%30.11 "Hg4 mi
2:00 AM25 °FIce fog.2 mph93%30.11 "Hg4 mi
1:00 AM25 °FIce fog.6 mph93%30.12 "Hg5 mi
12:00 AM27 °FIce fog.7 mph93%30.12 "Hg6 mi
11:00 PM
Sat, Feb 6
28 °FClear.8 mph86%30.14 "Hg8 mi
10:00 PM28 °FPassing clouds.10 mph86%30.15 "Hg9 mi
9:00 PM30 °FOvercast.13 mph80%30.16 "Hg9 mi
8:00 PM30 °FOvercast.13 mph75%30.17 "Hg9 mi
7:00 PM30 °FOvercast.14 mph75%30.16 "Hg9 mi
6:00 PM32 °FMostly cloudy.14 mph75%30.16 "Hg9 mi
Weather by CustomWeather, © 2016

See weather overviewHow to use our weather pages